| time (UTC) | temp F | wind direction | speed knots | gust knots | rain 1hr in | rain 24hr in | rain mn in | humidity % | barometer mb |
| 20260508012659 | 40 | 358 | 0.0 | 0.0 | 0.00 | 0.04 | 0.04 | 77 | 1014.9 |
| 20260508012155 | 40 | 358 | 0.0 | 0.0 | 0.00 | 0.04 | 0.04 | 77 | 1015.1 |
| 20260508011654 | 40 | 358 | 0.0 | 0.0 | 0.00 | 0.04 | 0.04 | 77 | 1014.8 |
| 20260508011151 | 41 | 358 | 0.0 | 0.0 | 0.00 | 0.04 | 0.04 | 77 | 1014.7 |
| 20260508010647 | 41 | 358 | 0.0 | 0.0 | 0.00 | 0.04 | 0.04 | 76 | 1014.8 |
| 20260508010145 | 41 | 358 | 0.0 | 0.0 | 0.00 | 0.04 | 0.04 | 74 | 1014.8 |
| 20260508005642 | 41 | 358 | 0.0 | 0.0 | 0.00 | 0.04 | 0.04 | 74 | 1014.6 |
| 20260508005139 | 42 | 358 | 0.0 | 0.0 | 0.00 | 0.04 | 0.04 | 74 | 1014.5 |
| 20260508004634 | 42 | 358 | 0.0 | 0.0 | 0.00 | 0.04 | 0.04 | 73 | 1014.5 |
| 20260508004131 | 43 | 358 | 0.0 | 0.0 | 0.00 | 0.04 | 0.04 | 70 | 1014.4 |
| 20260508003627 | 43 | 358 | 0.0 | 0.0 | 0.00 | 0.04 | 0.04 | 69 | 1014.5 |
| 20260508003125 | 43 | 358 | 0.0 | 0.0 | 0.00 | 0.04 | 0.04 | 69 | 1014.3 |
| 20260508002621 | 44 | 358 | 0.0 | 0.0 | 0.00 | 0.04 | 0.04 | 71 | 1014.3 |
| 20260508002114 | 44 | 358 | 0.0 | 0.0 | 0.00 | 0.04 | 0.04 | 66 | 1014.0 |
| 20260508001613 | 45 | 358 | 0.0 | 0.0 | 0.00 | 0.04 | 0.04 | 67 | 1014.2 |
| 20260508001110 | 45 | 358 | 0.0 | 0.0 | 0.00 | 0.04 | 0.04 | 65 | 1014.2 |
| 20260508000606 | 45 | 358 | 0.0 | 0.0 | 0.00 | 0.04 | 0.04 | 67 | 1014.4 |
| 20260508000103 | 46 | 31 | 0.0 | 0.0 | 0.00 | 0.04 | 0.04 | 67 | 1014.3 |
| 20260507235600 | 46 | 46 | 0.0 | 0.0 | 0.00 | 0.04 | 0.04 | 65 | 1013.7 |
| 20260507235057 | 46 | 45 | 0.0 | 0.9 | 0.00 | 0.04 | 0.04 | 64 | 1014.0 |
| 20260507234554 | 47 | 23 | 0.0 | 1.7 | 0.00 | 0.04 | 0.04 | 62 | 1013.9 |
| 20260507234051 | 47 | 0 | 0.0 | 0.0 | 0.00 | 0.04 | 0.04 | 63 | 1013.9 |
| 20260507233548 | 47 | 108 | 0.0 | 0.0 | 0.00 | 0.04 | 0.04 | 61 | 1013.7 |
| 20260507233047 | 47 | 97 | 0.0 | 0.0 | 0.00 | 0.04 | 0.04 | 64 | 1013.7 |
| 20260507232542 | 48 | 12 | 0.0 | 0.0 | 0.00 | 0.04 | 0.04 | 62 | 1013.5 |
| 20260507232039 | 48 | 340 | 0.0 | 1.7 | 0.00 | 0.04 | 0.04 | 61 | 1013.4 |
| 20260507231536 | 48 | 290 | 0.9 | 1.7 | 0.00 | 0.04 | 0.04 | 63 | 1013.5 |
| 20260507231033 | 48 | 67 | 0.0 | 0.0 | 0.00 | 0.04 | 0.04 | 65 | 1013.5 |
| 20260507230529 | 48 | 2 | 0.0 | 0.0 | 0.00 | 0.04 | 0.04 | 63 | 1013.5 |
| 20260507230026 | 48 | 103 | 0.0 | 0.0 | 0.00 | 0.04 | 0.04 | 62 | 1013.5 |
| 20260507225521 | 49 | 158 | 0.0 | 0.9 | 0.00 | 0.04 | 0.04 | 66 | 1013.6 |
| 20260507225018 | 49 | 143 | 0.0 | 0.0 | 0.00 | 0.04 | 0.04 | 58 | 1013.6 |
| 20260507224514 | 50 | 103 | 0.0 | 1.7 | 0.00 | 0.04 | 0.04 | 60 | 1013.5 |
| 20260507224010 | 49 | 135 | 0.9 | 1.7 | 0.00 | 0.04 | 0.04 | 60 | 1013.5 |
| 20260507223506 | 49 | 25 | 0.0 | 1.7 | 0.00 | 0.04 | 0.04 | 62 | 1013.4 |
| 20260507223003 | 50 | 90 | 0.0 | 0.9 | 0.00 | 0.04 | 0.04 | 64 | 1013.6 |
| 20260507222501 | 50 | 335 | 1.7 | 1.7 | 0.00 | 0.04 | 0.04 | 60 | 1013.4 |
| 20260507221957 | 51 | 8 | 0.0 | 0.9 | 0.00 | 0.04 | 0.04 | 57 | 1013.3 |
| 20260507221454 | 51 | 32 | 0.0 | 0.9 | 0.00 | 0.04 | 0.04 | 58 | 1013.1 |
| 20260507220950 | 51 | 11 | 0.0 | 0.0 | 0.00 | 0.04 | 0.04 | 55 | 1013.1 |
| 20260507220448 | 51 | 60 | 0.9 | 0.9 | 0.00 | 0.04 | 0.04 | 57 | 1013.0 |
| 20260507215944 | 51 | 38 | 0.0 | 2.6 | 0.00 | 0.04 | 0.04 | 60 | 1013.1 |
| 20260507215441 | 51 | 79 | 0.0 | 1.7 | 0.00 | 0.04 | 0.04 | 57 | 1013.3 |
| 20260507214938 | 52 | 125 | 0.0 | 0.9 | 0.00 | 0.04 | 0.04 | 56 | 1013.0 |
| 20260507214436 | 52 | 48 | 0.0 | 0.9 | 0.00 | 0.04 | 0.04 | 54 | 1013.0 |
| 20260507213931 | 52 | 97 | 0.0 | 0.0 | 0.00 | 0.04 | 0.04 | 56 | 1013.1 |
| 20260507213428 | 52 | 127 | 0.0 | 0.9 | 0.00 | 0.04 | 0.04 | 59 | 1013.0 |
| 20260507212925 | 51 | 0 | 0.0 | 0.0 | 0.00 | 0.04 | 0.04 | 64 | 1013.0 |
| 20260507212420 | 51 | 137 | 0.0 | 1.7 | 0.00 | 0.04 | 0.04 | 60 | 1012.9 |
| 20260507211918 | 51 | 328 | 0.0 | 3.5 | 0.00 | 0.04 | 0.04 | 59 | 1012.8 |
| 20260507211409 | 51 | 23 | 0.0 | 1.7 | 0.00 | 0.04 | 0.04 | 59 | 1012.8 |
| 20260507210906 | 51 | 24 | 0.0 | 1.7 | 0.00 | 0.04 | 0.04 | 60 | 1012.8 |
| 20260507210403 | 52 | 82 | 0.9 | 0.9 | 0.00 | 0.04 | 0.04 | 59 | 1012.9 |
| 20260507205859 | 52 | 147 | 0.0 | 1.7 | 0.00 | 0.04 | 0.04 | 59 | 1012.6 |
| 20260507205357 | 52 | 50 | 0.0 | 0.9 | 0.00 | 0.04 | 0.04 | 56 | 1012.6 |
| 20260507204852 | 52 | 34 | 0.9 | 1.7 | 0.00 | 0.04 | 0.04 | 58 | 1012.5 |
| 20260507204349 | 51 | 193 | 0.9 | 1.7 | 0.00 | 0.04 | 0.04 | 58 | 1012.6 |
| 20260507203847 | 51 | 328 | 0.0 | 0.0 | 0.00 | 0.04 | 0.04 | 60 | 1012.8 |
| 20260507203344 | 51 | 21 | 0.0 | 0.0 | 0.00 | 0.04 | 0.04 | 60 | 1012.9 |
| 20260507202840 | 51 | 85 | 0.0 | 0.9 | 0.00 | 0.04 | 0.04 | 59 | 1012.8 |
| 20260507202337 | 52 | 26 | 0.9 | 0.9 | 0.00 | 0.04 | 0.04 | 57 | 1012.8 |
| 20260507201832 | 51 | 63 | 0.9 | 3.5 | 0.00 | 0.04 | 0.04 | 61 | 1012.9 |
| 20260507201328 | 51 | 16 | 0.0 | 0.9 | 0.00 | 0.04 | 0.04 | 63 | 1013.1 |
| 20260507200824 | 52 | 238 | 0.0 | 0.9 | 0.00 | 0.04 | 0.04 | 60 | 1013.1 |
| 20260507200321 | 52 | 140 | 0.0 | 0.9 | 0.00 | 0.04 | 0.04 | 61 | 1013.2 |
| 20260507195816 | 53 | 106 | 0.0 | 0.0 | 0.00 | 0.04 | 0.04 | 56 | 1013.1 |
| 20260507195314 | 52 | 237 | 1.7 | 1.7 | 0.00 | 0.04 | 0.04 | 63 | 1013.2 |
| 20260507194811 | 52 | 101 | 0.0 | 1.7 | 0.00 | 0.04 | 0.04 | 58 | 1013.2 |
| 20260507194307 | 53 | 132 | 0.9 | 1.7 | 0.00 | 0.04 | 0.04 | 60 | 1013.3 |
| 20260507193804 | 53 | 74 | 0.9 | 1.7 | 0.00 | 0.04 | 0.04 | 55 | 1013.2 |
| 20260507193301 | 53 | 116 | 0.0 | 0.0 | 0.00 | 0.04 | 0.04 | 57 | 1013.0 |
| 20260507192757 | 53 | 18 | 0.9 | 5.2 | 0.00 | 0.04 | 0.04 | 57 | 1013.1 |
| 20260507192254 | 52 | 37 | 0.0 | 2.6 | 0.00 | 0.04 | 0.04 | 58 | 1013.4 |
| 20260507191750 | 52 | 74 | 0.0 | 0.9 | 0.00 | 0.04 | 0.04 | 57 | 1013.2 |
| 20260507191247 | 52 | 140 | 0.0 | 1.7 | 0.00 | 0.04 | 0.04 | 62 | 1013.4 |
| 20260507190743 | 52 | 18 | 0.9 | 1.7 | 0.00 | 0.04 | 0.04 | 60 | 1013.0 |
| 20260507190242 | 53 | 63 | 0.9 | 5.2 | 0.00 | 0.04 | 0.04 | 54 | 1013.2 |
| 20260507185740 | 55 | 359 | 1.7 | 1.7 | 0.00 | 0.04 | 0.04 | 54 | 1013.1 |
| 20260507185237 | 55 | 93 | 1.7 | 2.6 | 0.00 | 0.04 | 0.04 | 58 | 1013.2 |
| 20260507184735 | 56 | 62 | 1.7 | 2.6 | 0.00 | 0.04 | 0.04 | 54 | 1013.2 |
| 20260507184232 | 55 | 56 | 0.9 | 0.9 | 0.00 | 0.04 | 0.04 | 57 | 1013.4 |
| 20260507183729 | 54 | 111 | 0.0 | 1.7 | 0.00 | 0.04 | 0.04 | 58 | 1013.5 |
| 20260507183226 | 54 | 150 | 0.0 | 0.9 | 0.00 | 0.04 | 0.04 | 68 | 1013.3 |
| 20260507182723 | 56 | 34 | 0.0 | 0.9 | 0.00 | 0.04 | 0.04 | 55 | 1013.3 |
| 20260507182218 | 57 | 108 | 0.0 | 2.6 | 0.00 | 0.04 | 0.04 | 63 | 1013.3 |
| 20260507181715 | 55 | 84 | 0.0 | 0.9 | 0.00 | 0.04 | 0.04 | 58 | 1013.3 |
| 20260507181212 | 53 | 146 | 0.9 | 1.7 | 0.00 | 0.04 | 0.04 | 74 | 1013.3 |
| 20260507180709 | 55 | 9 | 0.9 | 0.9 | 0.00 | 0.04 | 0.04 | 57 | 1013.3 |
| 20260507180205 | 55 | 125 | 0.0 | 0.9 | 0.00 | 0.04 | 0.04 | 59 | 1013.4 |
| 20260507175700 | 55 | 324 | 0.0 | 0.9 | 0.00 | 0.04 | 0.04 | 66 | 1013.4 |
| 20260507175158 | 55 | 230 | 0.0 | 1.7 | 0.00 | 0.04 | 0.04 | 70 | 1013.4 |
| 20260507174655 | 55 | 50 | 0.9 | 1.7 | 0.00 | 0.04 | 0.04 | 56 | 1013.1 |
| 20260507174153 | 56 | 91 | 0.9 | 1.7 | 0.00 | 0.04 | 0.04 | 59 | 1013.6 |
| 20260507173650 | 56 | 42 | 0.0 | 1.7 | 0.00 | 0.04 | 0.04 | 57 | 1013.5 |
| 20260507173147 | 57 | 71 | 0.0 | 1.7 | 0.00 | 0.04 | 0.04 | 57 | 1013.5 |
| 20260507172644 | 56 | 58 | 0.0 | 2.6 | 0.00 | 0.04 | 0.04 | 58 | 1013.5 |
| 20260507172141 | 56 | 65 | 0.0 | 0.9 | 0.00 | 0.04 | 0.04 | 66 | 1013.7 |
| 20260507171641 | 55 | 39 | 0.9 | 1.7 | 0.00 | 0.04 | 0.04 | 63 | 1013.6 |
| 20260507171138 | 55 | 39 | 0.9 | 1.7 | 0.00 | 0.04 | 0.04 | 67 | 1013.9 |
| 20260507170635 | 55 | 22 | 0.0 | 1.7 | 0.00 | 0.04 | 0.04 | 71 | 1014.0 |
| 20260507170133 | 54 | 42 | 1.7 | 2.6 | 0.00 | 0.04 | 0.04 | 66 | 1014.1 |
| 20260507165628 | 55 | 1 | 0.0 | 0.9 | 0.00 | 0.04 | 0.04 | 65 | 1014.2 |
| 20260507165124 | 53 | 8 | 0.9 | 1.7 | 0.00 | 0.04 | 0.04 | 63 | 1014.4 |
| 20260507164620 | 54 | 16 | 1.7 | 2.6 | 0.00 | 0.04 | 0.04 | 70 | 1014.5 |
| 20260507164117 | 53 | 39 | 0.0 | 1.7 | 0.00 | 0.04 | 0.04 | 70 | 1014.4 |
| 20260507163615 | 54 | 0 | 0.9 | 1.7 | 0.00 | 0.04 | 0.04 | 74 | 1014.4 |
| 20260507163113 | 53 | 25 | 1.7 | 1.7 | 0.00 | 0.04 | 0.04 | 71 | 1014.4 |
| 20260507162614 | 51 | 304 | 1.7 | 2.6 | 0.00 | 0.04 | 0.04 | 75 | 1014.5 |
| 20260507162110 | 49 | 41 | 0.0 | 0.0 | 0.00 | 0.04 | 0.04 | 77 | 1014.5 |
| 20260507161606 | 51 | 63 | 0.9 | 2.6 | 0.00 | 0.04 | 0.04 | 76 | 1014.7 |
| 20260507161103 | 50 | 335 | 0.0 | 0.9 | 0.00 | 0.04 | 0.04 | 78 | 1014.6 |
| 20260507160600 | 51 | 335 | 0.9 | 2.6 | 0.00 | 0.04 | 0.04 | 74 | 1014.7 |
| 20260507160056 | 52 | 67 | 0.0 | 0.9 | 0.00 | 0.04 | 0.04 | 76 | 1014.7 |
| 20260507155551 | 53 | 67 | 0.0 | 0.9 | 0.00 | 0.04 | 0.04 | 74 | 1014.6 |
| 20260507155049 | 51 | 132 | 0.0 | 0.9 | 0.00 | 0.04 | 0.04 | 79 | 1014.7 |
| 20260507154545 | 52 | 21 | 0.0 | 0.9 | 0.00 | 0.04 | 0.04 | 75 | 1014.6 |
| 20260507154043 | 52 | 261 | 0.0 | 0.9 | 0.00 | 0.04 | 0.04 | 80 | 1014.6 |
| 20260507153539 | 50 | 46 | 1.7 | 1.7 | 0.00 | 0.04 | 0.04 | 78 | 1014.7 |
| 20260507153035 | 50 | 48 | 0.9 | 1.7 | 0.00 | 0.04 | 0.04 | 84 | 1014.8 |
| 20260507152531 | 49 | 72 | 0.0 | 0.0 | 0.00 | 0.04 | 0.04 | 82 | 1014.9 |
| 20260507152028 | 49 | 63 | 0.9 | 3.5 | 0.00 | 0.04 | 0.04 | 85 | 1014.7 |
| 20260507151524 | 50 | 345 | 0.0 | 1.7 | 0.00 | 0.04 | 0.04 | 85 | 1014.8 |
| 20260507151022 | 51 | 26 | 0.9 | 1.7 | 0.00 | 0.04 | 0.04 | 85 | 1014.6 |
| 20260507150519 | 51 | 88 | 0.9 | 0.9 | 0.00 | 0.04 | 0.04 | 87 | 1014.7 |
| 20260507150016 | 50 | 62 | 0.9 | 0.9 | 0.00 | 0.04 | 0.04 | 86 | 1014.9 |
| 20260507145516 | 50 | 129 | 0.9 | 0.9 | 0.00 | 0.04 | 0.04 | 89 | 1015.2 |
| 20260507145014 | 49 | 130 | 0.9 | 1.7 | 0.00 | 0.04 | 0.04 | 89 | 1015.2 |
| 20260507144510 | 47 | 13 | 1.7 | 1.7 | 0.00 | 0.04 | 0.04 | 86 | 1015.4 |
| 20260507144008 | 45 | 40 | 0.0 | 0.9 | 0.00 | 0.04 | 0.04 | 91 | 1015.4 |
| 20260507143505 | 45 | 16 | 0.0 | 0.0 | 0.00 | 0.04 | 0.04 | 91 | 1015.5 |
| 20260507143002 | 46 | 22 | 0.0 | 0.0 | 0.00 | 0.04 | 0.04 | 93 | 1015.6 |
| 20260507142457 | 46 | 19 | 0.0 | 0.0 | 0.00 | 0.04 | 0.04 | 92 | 1015.5 |
| 20260507141954 | 45 | 32 | 0.0 | 0.0 | 0.00 | 0.04 | 0.04 | 93 | 1015.7 |
| 20260507141450 | 44 | 20 | 0.0 | 0.0 | 0.00 | 0.04 | 0.04 | 95 | 1015.6 |
| 20260507140947 | 44 | 22 | 0.0 | 1.7 | 0.00 | 0.04 | 0.04 | 94 | 1015.7 |
| 20260507140444 | 44 | 276 | 0.0 | 1.7 | 0.00 | 0.04 | 0.04 | 97 | 1015.8 |
| 20260507135942 | 44 | 353 | 0.0 | 0.0 | 0.00 | 0.04 | 0.04 | 97 | 1015.7 |
| 20260507135438 | 44 | 353 | 0.0 | 0.0 | 0.00 | 0.04 | 0.04 | 96 | 1015.7 |
| 20260507134935 | 44 | 354 | 0.0 | 0.0 | 0.00 | 0.04 | 0.04 | 97 | 1016.0 |
| 20260507134432 | 44 | 301 | 0.0 | 0.0 | 0.00 | 0.04 | 0.04 | 97 | 1015.8 |
| 20260507133928 | 44 | 343 | 0.0 | 0.0 | 0.00 | 0.04 | 0.04 | 99 | 1016.0 |
| 20260507133424 | 43 | 343 | 0.0 | 0.0 | 0.00 | 0.04 | 0.04 | 99 | 1015.9 |
| 20260507132923 | 43 | 346 | 0.0 | 0.0 | 0.00 | 0.04 | 0.04 | 99 | 1015.9 |
| 20260507132418 | 43 | 346 | 0.0 | 0.0 | 0.00 | 0.04 | 0.04 | 99 | 1015.9 |
| 20260507131915 | 43 | 346 | 0.0 | 0.9 | 0.00 | 0.04 | 0.04 | 99 | 1015.9 |
| 20260507131412 | 42 | 345 | 0.0 | 0.0 | 0.00 | 0.04 | 0.04 | 99 | 1015.8 |
| 20260507130909 | 42 | 345 | 0.0 | 0.0 | 0.00 | 0.04 | 0.04 | 99 | 1015.8 |
| 20260507130406 | 43 | 345 | 0.0 | 0.0 | 0.00 | 0.04 | 0.04 | 99 | 1016.0 |
| 20260507125905 | 42 | 345 | 0.0 | 0.0 | 0.00 | 0.04 | 0.04 | 99 | 1016.0 |
| 20260507125402 | 42 | 345 | 0.0 | 0.0 | 0.00 | 0.04 | 0.04 | 99 | 1015.8 |
| 20260507124900 | 42 | 345 | 0.0 | 0.0 | 0.00 | 0.04 | 0.04 | 99 | 1015.9 |
| 20260507124355 | 42 | 345 | 0.0 | 0.0 | 0.00 | 0.04 | 0.04 | 99 | 1016.2 |
| 20260507123854 | 42 | 341 | 0.0 | 0.0 | 0.00 | 0.04 | 0.04 | 99 | 1016.0 |
| 20260507123351 | 42 | 341 | 0.0 | 0.0 | 0.00 | 0.04 | 0.04 | 99 | 1016.5 |
| 20260507122847 | 41 | 341 | 0.0 | 0.0 | 0.00 | 0.04 | 0.04 | 99 | 1016.4 |
| 20260507122343 | 41 | 341 | 0.0 | 0.0 | 0.00 | 0.04 | 0.04 | 99 | 1016.2 |
| 20260507121839 | 41 | 341 | 0.0 | 0.0 | 0.00 | 0.04 | 0.04 | 99 | 1016.2 |
| 20260507121335 | 41 | 341 | 0.0 | 0.0 | 0.00 | 0.04 | 0.04 | 99 | 1015.8 |
| 20260507120832 | 41 | 341 | 0.0 | 0.0 | 0.00 | 0.04 | 0.04 | 99 | 1015.9 |
| 20260507120328 | 40 | 341 | 0.0 | 0.0 | 0.00 | 0.04 | 0.04 | 99 | 1015.8 |
| 20260507115824 | 40 | 341 | 0.0 | 0.0 | 0.00 | 0.04 | 0.04 | 99 | 1016.0 |
| 20260507115320 | 40 | 341 | 0.0 | 0.0 | 0.00 | 0.04 | 0.04 | 99 | 1016.0 |
| 20260507114816 | 40 | 341 | 0.0 | 0.0 | 0.00 | 0.04 | 0.04 | 99 | 1015.9 |
| 20260507114313 | 41 | 341 | 0.0 | 0.0 | 0.00 | 0.04 | 0.04 | 99 | 1015.9 |
| 20260507113811 | 41 | 341 | 0.0 | 0.0 | 0.00 | 0.04 | 0.04 | 99 | 1016.0 |
| 20260507113307 | 40 | 341 | 0.0 | 0.0 | 0.00 | 0.04 | 0.04 | 99 | 1015.7 |
| 20260507112805 | 40 | 341 | 0.0 | 0.0 | 0.00 | 0.04 | 0.04 | 99 | 1015.6 |
| 20260507112306 | 40 | 341 | 0.0 | 0.0 | 0.00 | 0.04 | 0.04 | 99 | 1015.6 |
| 20260507111800 | 40 | 341 | 0.0 | 0.0 | 0.00 | 0.04 | 0.04 | 99 | 1015.4 |
| 20260507111256 | 40 | 341 | 0.0 | 0.0 | 0.00 | 0.04 | 0.04 | 99 | 1015.3 |
| 20260507110752 | 40 | 341 | 0.0 | 0.0 | 0.00 | 0.04 | 0.04 | 99 | 1015.3 |
| 20260507110249 | 40 | 341 | 0.0 | 0.0 | 0.00 | 0.04 | 0.04 | 99 | 1015.4 |
| 20260507105746 | 40 | 341 | 0.0 | 0.0 | 0.00 | 0.04 | 0.04 | 99 | 1015.3 |
| 20260507105241 | 40 | 341 | 0.0 | 0.0 | 0.00 | 0.04 | 0.04 | 99 | 1015.4 |
| 20260507104739 | 40 | 341 | 0.0 | 0.0 | 0.00 | 0.04 | 0.04 | 99 | 1015.4 |
| 20260507104236 | 40 | 341 | 0.0 | 0.0 | 0.00 | 0.04 | 0.04 | 99 | 1015.5 |
| 20260507103732 | 40 | 341 | 0.0 | 0.0 | 0.00 | 0.04 | 0.04 | 99 | 1015.4 |
| 20260507103228 | 40 | 341 | 0.0 | 0.0 | 0.00 | 0.04 | 0.04 | 99 | 1015.3 |
| 20260507102724 | 40 | 341 | 0.0 | 0.0 | 0.00 | 0.04 | 0.04 | 99 | 1015.1 |
| 20260507102221 | 40 | 341 | 0.0 | 0.0 | 0.00 | 0.04 | 0.04 | 99 | 1015.2 |
| 20260507101717 | 40 | 341 | 0.0 | 0.0 | 0.00 | 0.04 | 0.04 | 99 | 1015.3 |
| 20260507101212 | 41 | 351 | 0.0 | 0.0 | 0.00 | 0.04 | 0.04 | 99 | 1014.9 |
| 20260507100710 | 41 | 350 | 0.0 | 0.0 | 0.00 | 0.04 | 0.04 | 99 | 1014.8 |
| 20260507100208 | 41 | 331 | 0.0 | 0.0 | 0.00 | 0.04 | 0.04 | 99 | 1014.8 |
| 20260507095706 | 42 | 331 | 0.0 | 0.0 | 0.00 | 0.04 | 0.04 | 99 | 1014.7 |
| 20260507095202 | 42 | 331 | 0.0 | 0.0 | 0.00 | 0.04 | 0.04 | 99 | 1014.6 |
| 20260507094659 | 42 | 331 | 0.0 | 0.0 | 0.00 | 0.04 | 0.04 | 99 | 1014.5 |
| 20260507094155 | 42 | 330 | 0.0 | 0.0 | 0.00 | 0.04 | 0.04 | 99 | 1014.4 |
| 20260507093653 | 42 | 330 | 0.0 | 0.0 | 0.00 | 0.04 | 0.04 | 99 | 1014.7 |
| 20260507093152 | 42 | 330 | 0.0 | 0.0 | 0.05 | 0.04 | 0.04 | 99 | 1014.8 |
| 20260507092648 | 42 | 330 | 0.0 | 0.0 | 0.05 | 0.04 | 0.04 | 99 | 1014.7 |
| 20260507092145 | 42 | 330 | 0.0 | 0.0 | 0.00 | 0.03 | 0.03 | 99 | 1014.9 |
| 20260507091641 | 42 | 330 | 0.0 | 0.0 | 0.00 | 0.03 | 0.03 | 99 | 1014.8 |
| 20260507091137 | 42 | 330 | 0.0 | 0.0 | 0.00 | 0.03 | 0.03 | 99 | 1014.9 |
| 20260507090633 | 42 | 330 | 0.0 | 0.0 | 0.00 | 0.03 | 0.03 | 99 | 1015.1 |
| 20260507090131 | 42 | 330 | 0.0 | 0.0 | 0.00 | 0.03 | 0.03 | 99 | 1014.8 |
| 20260507085627 | 42 | 330 | 0.0 | 0.0 | 0.07 | 0.03 | 0.03 | 99 | 1014.7 |
| 20260507085124 | 42 | 330 | 0.0 | 0.0 | 0.07 | 0.03 | 0.03 | 99 | 1014.6 |
| 20260507084621 | 42 | 330 | 0.0 | 0.0 | 0.00 | 0.02 | 0.02 | 99 | 1014.8 |
| 20260507084118 | 42 | 330 | 0.0 | 0.0 | 0.00 | 0.02 | 0.02 | 99 | 1014.6 |
| 20260507083614 | 42 | 330 | 0.0 | 0.0 | 0.00 | 0.02 | 0.02 | 99 | 1014.9 |
| 20260507083112 | 42 | 330 | 0.0 | 0.0 | 0.00 | 0.02 | 0.02 | 99 | 1014.9 |
| 20260507082607 | 42 | 330 | 0.0 | 0.0 | 0.00 | 0.02 | 0.02 | 99 | 1014.9 |
| 20260507082104 | 42 | 330 | 0.0 | 0.0 | 0.00 | 0.02 | 0.02 | 99 | 1014.8 |
| 20260507081600 | 42 | 330 | 0.0 | 0.0 | 0.00 | 0.02 | 0.02 | 99 | 1014.8 |
| 20260507081057 | 42 | 330 | 0.0 | 0.0 | 0.00 | 0.02 | 0.02 | 99 | 1014.8 |
| 20260507080553 | 42 | 330 | 0.0 | 0.0 | 0.00 | 0.02 | 0.02 | 99 | 1014.6 |
| 20260507080050 | 42 | 330 | 0.0 | 0.0 | 0.00 | 0.02 | 0.02 | 99 | 1014.6 |
| 20260507075545 | 42 | 330 | 0.0 | 0.0 | 0.00 | 0.02 | 0.02 | 99 | 1014.7 |
| 20260507075041 | 42 | 330 | 0.0 | 0.0 | 0.00 | 0.02 | 0.02 | 99 | 1014.9 |
| 20260507074538 | 42 | 330 | 0.0 | 0.0 | 0.00 | 0.02 | 0.02 | 99 | 1014.8 |
| 20260507074037 | 42 | 330 | 0.0 | 0.0 | 0.00 | 0.02 | 0.02 | 99 | 1014.8 |
| 20260507073533 | 42 | 330 | 0.0 | 0.0 | 0.00 | 0.02 | 0.02 | 99 | 1014.5 |
| 20260507073029 | 42 | 330 | 0.0 | 0.0 | 0.00 | 0.02 | 0.02 | 99 | 1014.8 |
| 20260507072527 | 42 | 330 | 0.0 | 0.0 | 0.00 | 0.02 | 0.02 | 99 | 1014.7 |
| 20260507072024 | 42 | 330 | 0.0 | 0.0 | 0.00 | 0.02 | 0.02 | 99 | 1014.9 |
| 20260507071521 | 42 | 330 | 0.0 | 0.0 | 0.00 | 0.02 | 0.02 | 99 | 1014.6 |
| 20260507071018 | 42 | 330 | 0.0 | 0.0 | 0.00 | 0.02 | 0.02 | 99 | 1014.9 |
| 20260507070515 | 42 | 330 | 0.0 | 0.0 | 0.00 | 0.02 | 0.02 | 99 | 1014.7 |
| 20260507070013 | 42 | 330 | 0.0 | 0.0 | 0.00 | 0.02 | 0.02 | 99 | 1014.9 |
| 20260507065508 | 42 | 330 | 0.0 | 0.0 | 0.00 | 0.02 | 0.02 | 99 | 1014.9 |
| 20260507065005 | 42 | 330 | 0.0 | 0.0 | 0.00 | 0.02 | 0.02 | 99 | 1014.7 |
| 20260507064504 | 42 | 330 | 0.0 | 0.0 | 0.00 | 0.02 | 0.02 | 99 | 1014.6 |
| 20260507064001 | 42 | 330 | 0.0 | 0.0 | 0.00 | 0.02 | 0.02 | 99 | 1014.6 |
| 20260507063458 | 42 | 330 | 0.0 | 0.0 | 0.00 | 0.02 | 0.02 | 99 | 1014.5 |
| 20260507062955 | 42 | 330 | 0.0 | 0.0 | 0.00 | 0.02 | 0.02 | 99 | 1014.7 |
| 20260507062452 | 42 | 330 | 0.0 | 0.0 | 0.07 | 0.02 | 0.02 | 99 | 1014.8 |
| 20260507061949 | 42 | 330 | 0.0 | 0.0 | 0.07 | 0.02 | 0.02 | 99 | 1015.2 |
| 20260507061447 | 42 | 330 | 0.0 | 0.0 | 0.00 | 0.01 | 0.01 | 99 | 1015.2 |
| 20260507060945 | 42 | 330 | 0.0 | 0.0 | 0.00 | 0.01 | 0.01 | 99 | 1015.2 |
| 20260507060442 | 42 | 330 | 0.0 | 0.0 | 0.00 | 0.01 | 0.01 | 99 | 1015.5 |
| 20260507055938 | 42 | 330 | 0.0 | 0.0 | 0.00 | 0.01 | 0.01 | 99 | 1015.3 |
| 20260507055434 | 42 | 330 | 0.0 | 0.0 | 0.00 | 0.01 | 0.01 | 99 | 1015.6 |
| 20260507054931 | 42 | 330 | 0.0 | 0.0 | 0.00 | 0.01 | 0.01 | 99 | 1015.6 |
| 20260507054427 | 42 | 330 | 0.0 | 0.0 | 0.00 | 0.01 | 0.01 | 99 | 1015.4 |
| 20260507053924 | 42 | 330 | 0.0 | 0.0 | 0.00 | 0.01 | 0.01 | 99 | 1015.6 |
| 20260507053422 | 42 | 341 | 0.0 | 0.0 | 0.00 | 0.01 | 0.01 | 99 | 1015.8 |
| 20260507052920 | 42 | 341 | 0.0 | 0.0 | 0.00 | 0.01 | 0.01 | 99 | 1015.7 |
| 20260507052417 | 42 | 343 | 0.0 | 0.0 | 0.00 | 0.01 | 0.01 | 99 | 1015.7 |
| 20260507051914 | 42 | 343 | 0.0 | 0.0 | 0.00 | 0.01 | 0.01 | 99 | 1015.7 |
| 20260507051412 | 42 | 345 | 0.0 | 0.0 | 0.00 | 0.01 | 0.01 | 99 | 1015.7 |
| 20260507050909 | 43 | 345 | 0.0 | 0.0 | 0.00 | 0.01 | 0.01 | 99 | 1015.8 |
| 20260507050405 | 43 | 5 | 0.0 | 0.0 | 0.00 | 0.01 | 0.01 | 99 | 1015.8 |
| 20260507045902 | 43 | 0 | 0.0 | 0.9 | 0.00 | 0.01 | 0.01 | 99 | 1015.7 |
| 20260507045359 | 43 | 241 | 0.0 | 0.0 | 0.00 | 0.01 | 0.01 | 99 | 1015.6 |
| 20260507044856 | 44 | 356 | 0.0 | 0.0 | 0.05 | 0.01 | 0.01 | 99 | 1015.6 |
| 20260507044352 | 44 | 253 | 0.0 | 0.0 | 0.05 | 0.01 | 0.01 | 99 | 1015.5 |
| 20260507043848 | 44 | 253 | 0.0 | 0.0 | 0.00 | 0.00 | 0.00 | 99 | 1015.6 |
| 20260507043345 | 44 | 230 | 0.0 | 0.0 | 0.00 | 0.00 | 0.00 | 99 | 1015.5 |
| 20260507042841 | 44 | 231 | 0.0 | 0.0 | 0.00 | 0.00 | 0.00 | 99 | 1015.3 |
| 20260507042337 | 44 | 231 | 0.0 | 0.0 | 0.00 | 0.00 | 0.00 | 99 | 1015.3 |
| 20260507041834 | 44 | 231 | 0.0 | 0.0 | 0.00 | 0.00 | 0.00 | 99 | 1015.4 |
| 20260507041331 | 44 | 231 | 0.0 | 0.0 | 0.00 | 0.00 | 0.00 | 99 | 1015.4 |
| 20260507040828 | 44 | 231 | 0.0 | 0.0 | 0.00 | 0.00 | 0.00 | 99 | 1015.4 |
| 20260507040324 | 45 | 231 | 0.0 | 0.0 | 0.07 | 0.00 | 0.00 | 99 | 1015.2 |
| 20260507035820 | 45 | 143 | 0.0 | 0.0 | 0.07 | 0.75 | 0.75 | 99 | 1015.2 |
| 20260507035315 | 45 | 143 | 0.0 | 0.0 | 0.00 | 0.74 | 0.74 | 99 | 1015.3 |
| 20260507034814 | 45 | 319 | 0.0 | 0.0 | 0.05 | 0.74 | 0.74 | 99 | 1015.2 |
| 20260507034310 | 45 | 319 | 0.0 | 0.0 | 0.05 | 0.74 | 0.74 | 99 | 1015.2 |
| 20260507033809 | 46 | 235 | 0.0 | 0.0 | 0.00 | 0.73 | 0.73 | 99 | 1015.5 |
| 20260507033306 | 46 | 235 | 0.0 | 0.0 | 0.07 | 0.73 | 0.73 | 99 | 1015.6 |
| 20260507032803 | 46 | 235 | 0.0 | 0.0 | 0.07 | 0.73 | 0.73 | 99 | 1014.7 |
| 20260507032259 | 46 | 211 | 0.0 | 0.0 | 0.00 | 0.72 | 0.72 | 99 | 1015.5 |
| 20260507031755 | 47 | 250 | 0.0 | 0.0 | 0.00 | 0.72 | 0.72 | 99 | 1016.0 |
| 20260507031252 | 47 | 250 | 0.0 | 0.0 | 0.00 | 0.72 | 0.72 | 99 | 1015.6 |
| 20260507030749 | 47 | 250 | 0.0 | 0.0 | 0.00 | 0.72 | 0.72 | 99 | 1015.3 |
| 20260507030246 | 46 | 250 | 0.0 | 0.0 | 0.05 | 0.72 | 0.72 | 99 | 1014.7 |
| 20260507025743 | 47 | 252 | 0.0 | 0.0 | 0.05 | 0.72 | 0.72 | 99 | 1015.1 |
| 20260507025240 | 47 | 252 | 0.0 | 0.0 | 0.00 | 0.71 | 0.71 | 99 | 1015.3 |
| 20260507024739 | 47 | 247 | 0.0 | 0.0 | 0.00 | 0.71 | 0.71 | 99 | 1015.3 |
| 20260507024235 | 47 | 247 | 0.0 | 0.0 | 0.00 | 0.71 | 0.71 | 99 | 1015.5 |
| 20260507023731 | 47 | 242 | 0.0 | 0.0 | 0.00 | 0.71 | 0.71 | 99 | 1015.3 |
| 20260507023228 | 47 | 255 | 0.0 | 0.0 | 0.00 | 0.71 | 0.71 | 99 | 1015.6 |
| 20260507022726 | 47 | 255 | 0.0 | 0.0 | 0.00 | 0.71 | 0.71 | 99 | 1015.4 |
| 20260507022221 | 47 | 255 | 0.0 | 0.0 | 0.07 | 0.71 | 0.71 | 99 | 1015.3 |
| 20260507021718 | 47 | 255 | 0.0 | 0.0 | 0.07 | 0.71 | 0.71 | 99 | 1014.8 |
| 20260507021213 | 47 | 255 | 0.0 | 0.0 | 0.00 | 0.70 | 0.70 | 99 | 1015.1 |
| 20260507020712 | 47 | 255 | 0.0 | 0.0 | 0.00 | 0.70 | 0.70 | 99 | 1014.8 |
| 20260507020208 | 47 | 255 | 0.0 | 0.0 | 0.00 | 0.70 | 0.70 | 99 | 1014.7 |
| 20260507015706 | 47 | 255 | 0.0 | 0.0 | 0.00 | 0.70 | 0.70 | 99 | 1014.8 |
| 20260507015203 | 47 | 255 | 0.0 | 0.0 | 0.00 | 0.70 | 0.70 | 99 | 1014.8 |
| 20260507014659 | 47 | 255 | 0.0 | 0.0 | 0.05 | 0.70 | 0.70 | 99 | 1014.7 |
| 20260507014155 | 47 | 255 | 0.0 | 0.0 | 0.05 | 0.70 | 0.70 | 99 | 1014.7 |
| 20260507013652 | 47 | 255 | 0.0 | 0.0 | 0.00 | 0.69 | 0.69 | 99 | 1014.8 |
| 20260507013149 | 47 | 189 | 0.0 | 0.0 | 0.00 | 0.69 | 0.69 | 99 | 1015.2 |